Weather History for Junction, TX

Change the Weather History Date:

Wednesday, March 6, 2013

  Actual Average Record
Temperature  
Mean Temperature 45 °F -  
Max Temperature 66 °F 65 °F 84 °F (2006)
Min Temperature 24 °F 40 °F 21 °F (2011)
Degree Days  
Heating Degree Days 20    
Moisture  
Dew Point 10 °F    
Average Humidity 26    
Maximum Humidity 49    
Minimum Humidity 6    
Precipitation  
Precipitation 0.00 in - - ()
Sea Level Pressure  
Sea Level Pressure 30.26 in    
Wind  
Wind Speed 3 mph (SE)    
Max Wind Speed 14 mph    
Max Gust Speed 18 mph    
Visibility 8 miles    
Events      
Averages and records for this station are not official NWS values.
T = Trace of Precipitation, MM = Missing Value Source: NWS Daily Summary

Daily Weather History Graph

Daily Weather History Graph

Search for Another Location

Airport:

Trip Planner

Search our weather history database for the weather conditions in past years. The results will help you decide how hot, cold, wet, or windy it might be!

Date:

Astronomy

Mar. 06, 2013 Rise Set
Actual Time 6:59 AM CST 6:41 PM CST
Civil Twilight 6:35 AM CST 7:05 PM CST
Nautical Twilight 6:07 AM CST 7:33 PM CST
Astronomical Twilight 5:39 AM CST 8:01 PM CST
Moon 2:52 AM CST (3/6) 1:41 PM CST (3/6)
Length of Visible Light 12h 30m
Length of Day
11h 42m
Waning Crescent, 29% of the Moon is Illuminated
Mar 6
Waning Crescent
Mar 11
New
Mar 19
First Quarter
Mar 27
Full
Apr 2
Last Quarter

Hourly Weather History & Observations

Time (CST) Temp. Windchill Dew Point Humidity Pressure Visibility Wind Dir Wind Speed Gust Speed Precip Events Conditions
12:51 AM 32.0 °F - 8.1 °F 37% 30.34 in 9.0 mi Calm Calm - N/A   Clear
1:51 AM 30.0 °F - 8.1 °F 40% 30.33 in 9.0 mi Calm Calm - N/A   Clear
2:51 AM 27.0 °F - 9.0 °F 47% 30.33 in 9.0 mi Calm Calm - N/A   Clear
3:51 AM 26.1 °F - 7.0 °F 44% 30.32 in 9.0 mi Calm Calm - N/A   Clear
4:51 AM 25.0 °F - 8.1 °F 49% 30.34 in 9.0 mi Calm Calm - N/A   Clear
5:51 AM 24.1 °F - 7.0 °F 48% 30.35 in 9.0 mi Calm Calm - N/A   Clear
6:51 AM 27.0 °F - 9.0 °F 47% 30.37 in 9.0 mi Calm Calm - N/A   Clear
7:51 AM 28.9 °F - 9.0 °F 43% 30.38 in 8.0 mi Calm Calm - N/A   Clear
8:51 AM 33.1 °F - 10.9 °F 40% 30.40 in 6.0 mi Calm Calm - N/A   Haze
9:51 AM 45.0 °F 40.6 °F 12.9 °F 27% 30.38 in 8.0 mi East 8.1 mph - N/A   Clear
10:51 AM 51.1 °F - 12.9 °F 22% 30.37 in 8.0 mi ENE 11.5 mph - N/A   Clear
11:51 AM 57.0 °F - 10.9 °F 16% 30.32 in 9.0 mi ENE 10.4 mph 17.3 mph N/A   Clear
12:51 PM 61.0 °F - 8.1 °F 12% 30.26 in 9.0 mi East 9.2 mph - N/A   Clear
1:51 PM 63.0 °F - 10.0 °F 13% 30.23 in 8.0 mi SSE 6.9 mph 16.1 mph N/A   Clear
2:51 PM 64.9 °F - 9.0 °F 11% 30.18 in 8.0 mi SSW 9.2 mph - N/A   Clear
3:51 PM 64.9 °F - 9.0 °F 11% 30.16 in 8.0 mi SE 11.5 mph - N/A   Clear
4:51 PM 64.9 °F - 10.9 °F 12% 30.14 in 8.0 mi South 13.8 mph 18.4 mph N/A   Clear
5:51 PM 63.0 °F - 12.0 °F 14% 30.14 in 8.0 mi SSE 13.8 mph - N/A   Unknown
6:51 PM 60.1 °F - 12.9 °F 16% 30.15 in 8.0 mi SSE 6.9 mph - N/A   Clear
7:51 PM 55.0 °F - 12.0 °F 18% 30.17 in 9.0 mi South 3.5 mph - N/A   Clear
8:51 PM 53.1 °F - 12.0 °F 20% 30.19 in 9.0 mi South 3.5 mph - N/A   Clear
9:51 PM 48.9 °F - 12.0 °F 23% 30.18 in 9.0 mi Calm Calm - N/A   Clear
10:51 PM 48.0 °F - 12.9 °F 24% 30.16 in 9.0 mi South 3.5 mph - N/A   Clear
11:51 PM 44.1 °F - 12.9 °F 28% 30.14 in 9.0 mi Calm Calm - N/A   Clear